Starlink 30547

operational
NORAD ID: 58044 Int'l Des: 2023-156 Owner: SPXS Country: US Constellation: starlink
LEOCIRCULAR

Starlink 30547について

説明を読み込み中...

リアルタイム位置

3D地球を読み込み中...

次回通過

高度履歴

Altitude vs Time

uPlot chart will show altitude changes over time

軌道要素

1 58044U 23156S 25258.72330277 .00000814 00000-0 39633-4 0 9992
2 58044 53.1577 260.9142 0001896 86.6784 273.4434 15.30196226108245
Epoch: Sep 15, 2025 • Age: 17 hours

現在のステータス

高度 475.8 km
速度 7.63 km/s
衛星直下点 2.17°N, 104.35°E
打ち上げ日 Oct 9, 2023
運用期間 1.9 years
タイプ internet

技術仕様

分類 Payload
質量 730.00 kg
乾燥質量 700.00 kg
総質量 730.00 kg
長さ 0.30 m
直径 4.10 m
スパン 29.00 m
形状 Box + pan
製造者 SPXS
バスタイプ Starlink V2M
フェーズステータス In Orbit
所有者/国 SPXS/US

大規模コンステレーション

Loading constellations...